[[{"header":{"parameterUnit":"m.s-1","parameterCategory":1,"la1":30.2991,"la2":30.254,"lo1":-89.0895,"lo2":-89.0444,"dy":0.0017,"dx":0.0017,"nx":28,"ny":28,"refTime":"2023-08-07T21:00:00:Z","depth":0,"parameterNumber":2,"parameterNumberName":"U-component_of_WINDS"},"data":[0,0,0,0,0,0,0,0,0,0,0,0,0,0,0,0,0,0,0,0,0,0,0,0,0,0,0,0,0,0,0,0,0,0,0,0,0,0,0,0,0,0,0,0,0,0,0,0,0,0,0,0,0,0,0,0,0,0,2.7627,2.7629,0,2.7854,2.7857,2.786,2.784,2.7836,2.7833,2.7829,2.8067,2.8076,2.8085,0,0,0,0,0,0,0,0,0,0,0,0,0,2.7178,2.7186,2.7627,2.763,2.7632,2.7854,2.7857,2.786,2.784,2.7836,2.7832,2.7828,2.8063,2.8075,2.8086,0,0,0,0,0,0,0,0,0,0,0,0,0,2.7386,2.7189,2.7626,2.7649,2.7653,2.7853,2.7857,2.7861,2.7841,2.7836,2.7831,2.7826,2.806,2.8074,2.8088,2.8281,0,0,2.8132,2.8138,0,0,0,0,0,0,0,0,2.7374,2.7402,2.7643,2.7648,2.7653,2.7813,2.7786,2.8002,2.7842,2.777,2.7829,2.7823,2.7987,2.8007,2.8061,2.8292,2.8302,2.8133,2.8142,2.8148,2.8152,0,0,0,0,0,0,0,2.736,2.7392,2.7717,2.7646,2.7653,2.7649,2.7673,2.7827,2.7905,2.7776,2.7775,2.7802,2.7989,2.8047,2.8067,2.8306,2.8132,2.8145,2.8154,2.816,2.8707,2.8713,0,0,0,0,0,0,2.7339,2.7381,2.771,2.7724,2.7498,2.7661,2.7688,2.7767,2.7903,2.7919,2.7806,2.78,2.8025,2.805,2.8075,2.8311,2.8148,2.8161,2.8169,2.8701,2.8708,2.8715,0,0,0,0,0,0,2.733,2.7369,2.7701,2.7552,2.7594,2.7674,2.7764,2.7774,2.7833,2.7926,2.794,2.7852,2.8022,2.8055,2.823,2.8319,2.8168,2.8181,2.8694,2.8703,2.8712,2.8784,0,0,0,0,0,0,2.7317,2.7366,2.7439,2.7554,2.7602,2.7851,2.7769,2.7783,2.7857,2.7852,2.7973,2.7988,2.8021,2.8208,2.8244,2.8336,2.8192,2.8687,2.8698,2.8709,2.8774,2.8794,2.8811,0,0,0,0,0,2.7301,2.7451,2.7443,2.7483,2.7696,2.7856,2.7884,2.7918,2.7865,2.794,2.8,2.7984,2.8302,2.8226,2.8266,2.8364,2.8681,2.8695,2.8708,2.8765,2.879,2.8811,0,0,0,0,0,0,2.7347,2.7467,2.7459,2.7651,2.7743,2.7852,2.7949,2.7942,2.8053,2.8043,2.8081,2.8109,2.8285,2.8342,2.8255,2.8558,2.8485,2.8507,2.8515,2.8539,2.8557,2.8541,2.8204,0,0,0,0,0,2.7379,2.7498,2.7597,2.7757,2.7803,2.7868,2.7939,2.7957,2.8055,2.8094,2.8167,2.8263,2.8385,2.8465,2.8582,2.8781,2.8808,2.8867,2.8886,2.8901,2.892,2.903,2.9058,2.8759,2.8759,2.8758,0,0,2.7447,2.7527,2.7601,2.7768,2.7842,2.7966,2.7901,2.8035,2.8128,2.8115,2.8285,2.8341,2.8451,2.8639,2.8726,2.8692,2.9008,2.8918,2.8929,2.8941,2.9047,2.9075,2.91,2.8768,2.8766,2.8765,0,0,2.7635,2.7707,2.7848,2.7923,2.8035,2.8077,2.811,2.8221,2.8257,2.8428,2.8421,2.8532,2.8741,2.882,2.8887,2.9104,2.9094,2.9141,2.9239,2.9346,2.937,2.9391,2.9469,2.9496,2.9159,2.9159,2.9159,0,2.7707,2.7892,2.7922,2.8057,2.8131,2.8123,2.8267,2.8338,2.8484,2.8535,2.8495,2.8756,2.883,2.9037,2.9089,2.9144,2.9184,2.9128,2.9363,2.9385,2.9405,2.948,2.951,2.9164,2.9164,2.9163,2.9163,0,2.7974,2.8103,2.8204,2.8342,2.8428,2.8566,2.8618,2.8701,2.8711,2.8757,2.8931,2.9018,2.9153,2.9203,2.9215,2.9412,2.9387,2.9355,2.9283,2.9438,2.951,2.9539,2.9172,2.917,2.9168,2.9167,0,0,2.82,2.8352,2.8389,2.8452,2.8574,2.8675,2.8813,2.8943,2.9014,2.9114,2.9231,2.9408,2.9378,2.9455,2.9475,2.9568,2.9735,2.9524,2.9527,2.9561,2.9958,2.9983,3.0016,2.9727,2.9733,2.9738,2.9949,0,2.8401,2.8645,2.8676,2.8893,2.9013,2.9006,2.9127,2.9215,2.9262,2.9371,2.9422,2.9547,2.9498,2.9544,2.9635,2.9695,2.9815,2.968,2.9839,2.9845,2.9814,3.0053,3.008,3.0276,2.9977,2.9982,2.9985,0,2.867,2.8775,2.9004,2.9109,2.9161,2.9269,2.9391,2.9494,2.9594,2.9621,2.9706,2.9714,2.9858,2.9778,2.9977,2.9884,2.9951,2.999,2.9998,3.0016,2.9926,3.0079,3.0339,3.0369,3.0029,3.0026,3.0023,0,2.8813,2.9013,2.9175,2.9229,2.9356,2.9432,2.9488,2.9583,2.9659,2.9766,2.9816,2.9938,3.0006,3.01,3.0141,3.0079,3.0339,3.0262,3.0367,3.0366,3.0424,3.042,3.07,3.0464,3.0463,3.0463,3.0462,0,2.9036,2.9177,2.9241,2.9342,2.9499,2.9533,2.9688,2.9741,2.9825,2.9937,2.9938,3.0043,3.0089,3.0202,3.0234,3.0395,3.0425,3.0452,3.046,3.0453,3.045,3.0499,3.0487,3.047,3.0469,3.0467,3.0466,0,2.9224,2.9273,2.945,2.9554,2.9584,2.9695,2.9785,2.9883,2.9927,3.0068,3.0103,3.0173,3.0305,3.0354,3.0515,3.0537,3.0723,3.0719,3.069,3.0692,3.0795,3.0785,3.1117,3.1163,3.0895,3.0897,3.0899,0,2.9364,2.9472,2.9587,2.9661,2.972,2.9839,2.9916,2.9953,3.0034,3.0155,3.0239,3.0369,3.0476,3.0687,3.0754,3.0877,3.0876,3.0984,3.0895,3.0885,3.088,3.0874,3.0885,3.1002,3.1004,3.1007,3.1008,0,2.9608,2.9626,2.9737,2.9857,2.9949,3.0046,3.0139,3.02,3.0251,3.0341,3.0475,3.0558,3.0721,3.0852,3.0978,3.1037,3.1033,3.1035,3.1066,3.1062,3.1041,3.1056,3.0737,3.1028,3.1026,3.1025,3.1024,3.1023,2.9778,2.9873,2.9969,3.0093,3.0166,3.0254,3.035,3.0406,3.0518,3.0653,3.0668,3.0812,3.0909,3.1078,3.1142,3.1256,3.1227,3.1272,3.1284,3.1295,3.1303,3.1021,3.1279,3.1278,3.1278,3.1278,3.1277,0,3.0023,3.0084,3.0197,3.0327,3.0425,3.0409,3.0511,3.0594,3.0721,3.0811,3.0915,3.1069,3.1195,3.127,3.1397,3.1474,3.1475,3.1506,3.1502,3.1516,3.1321,3.1282,3.1503,3.1503,3.1503,3.1503,3.1503,3.1503,3.0162,3.0323,3.0353,3.0551,3.0611,3.0751,3.0811,3.0892,3.0964,3.1135,3.124,3.1287,3.1371,3.1504,3.1619,3.1638,3.1685,3.1719,3.1736,3.1553,3.153,3.1507,3.1471,3.1729,3.1729,3.1922,3.1924,3.1925]},{"header":{"parameterUnit":"m.s-1","parameterCategory":1,"la1":30.2991,"la2":30.254,"lo1":-89.0895,"lo2":-89.0444,"dy":0.0017,"dx":0.0017,"nx":28,"ny":28,"refTime":"2023-08-07T21:00:00:Z","depth":0,"parameterNumber":3,"parameterNumberName":"V-component_of_WINDS"},"data":[0,0,0,0,0,0,0,0,0,0,0,0,0,0,0,0,0,0,0,0,0,0,0,0,0,0,0,0,0,0,0,0,0,0,0,0,0,0,0,0,0,0,0,0,0,0,0,0,0,0,0,0,0,0,0,0,0,0,5.6862,5.6864,0,5.7072,5.7075,5.7077,5.7055,5.7051,5.7048,5.7045,5.7251,5.726,5.7268,0,0,0,0,0,0,0,0,0,0,0,0,0,5.6431,5.6439,5.6862,5.6865,5.6867,5.7072,5.7075,5.7078,5.7055,5.7051,5.7047,5.7043,5.7249,5.7259,5.7269,0,0,0,0,0,0,0,0,0,0,0,0,0,5.6627,5.6441,5.6861,5.6881,5.6885,5.7071,5.7075,5.7079,5.7056,5.7051,5.7046,5.7041,5.7245,5.7258,5.727,5.7449,0,0,5.731,5.7315,0,0,0,0,0,0,0,0,5.6616,5.6643,5.6875,5.688,5.6885,5.7032,5.6999,5.7202,5.7057,5.6991,5.7045,5.7039,5.7182,5.72,5.725,5.7459,5.7467,5.7311,5.7319,5.7324,5.7328,0,0,0,0,0,0,0,5.6602,5.6634,5.6945,5.6879,5.6884,5.6876,5.6898,5.7037,5.7111,5.6996,5.6995,5.7021,5.7183,5.7237,5.7254,5.747,5.7311,5.7322,5.733,5.7335,5.7833,5.7839,0,0,0,0,0,0,5.6585,5.6622,5.6938,5.6951,5.6736,5.6887,5.6913,5.699,5.711,5.7123,5.7025,5.7019,5.7218,5.7239,5.7262,5.7478,5.7324,5.7336,5.7344,5.7828,5.7835,5.784,0,0,0,0,0,0,5.6576,5.6614,5.693,5.6787,5.6826,5.69,5.6987,5.6996,5.7051,5.7131,5.7143,5.7067,5.7215,5.7243,5.7403,5.7484,5.7342,5.7354,5.7821,5.783,5.7838,5.7911,0,0,0,0,0,0,5.6564,5.6611,5.6682,5.6789,5.6834,5.7071,5.6992,5.7004,5.7074,5.7068,5.7174,5.7187,5.7213,5.7384,5.7415,5.75,5.7364,5.7814,5.7825,5.7835,5.7902,5.7921,5.7938,0,0,0,0,0,5.6549,5.6693,5.6686,5.6724,5.6925,5.7075,5.7101,5.7131,5.7081,5.7151,5.7202,5.7184,5.747,5.74,5.7436,5.7525,5.7809,5.7822,5.7834,5.7894,5.7917,5.7937,0,0,0,0,0,0,5.6591,5.6707,5.67,5.6884,5.697,5.7071,5.7162,5.7155,5.7255,5.7245,5.7275,5.7299,5.7459,5.7508,5.7427,5.7702,5.7632,5.7653,5.7666,5.7689,5.7706,5.7691,5.7374,0,0,0,0,0,5.6622,5.6738,5.6831,5.6984,5.7028,5.7087,5.7154,5.7169,5.7259,5.7294,5.7357,5.7442,5.7551,5.7622,5.7727,5.7908,5.793,5.7987,5.8004,5.8019,5.8036,5.8133,5.8159,5.7881,5.7881,5.7881,0,0,5.6686,5.6764,5.6835,5.6995,5.7063,5.7179,5.7118,5.7244,5.7329,5.7312,5.7468,5.7516,5.7612,5.7783,5.7861,5.7828,5.8117,5.8035,5.8045,5.8055,5.8149,5.8175,5.8198,5.789,5.7888,5.7887,0,0,5.6864,5.6935,5.707,5.714,5.7246,5.7284,5.7316,5.7419,5.7451,5.7608,5.7597,5.7697,5.7885,5.7953,5.8013,5.8214,5.82,5.8247,5.834,5.8435,5.8457,5.8476,5.8547,5.8572,5.8263,5.8264,5.8264,0,5.693,5.7108,5.7139,5.7267,5.7336,5.7328,5.7463,5.7528,5.7662,5.7708,5.767,5.7904,5.7968,5.8154,5.8203,5.8252,5.8287,5.8236,5.8452,5.8471,5.849,5.8558,5.8584,5.8269,5.8268,5.8268,5.8267,0,5.7184,5.7307,5.7402,5.7534,5.7614,5.7744,5.7792,5.7868,5.7875,5.7917,5.8074,5.8151,5.827,5.8315,5.8323,5.8502,5.8478,5.8445,5.8375,5.8521,5.8585,5.8612,5.8276,5.8274,5.8273,5.8271,0,0,5.7395,5.7543,5.7577,5.7636,5.7751,5.7845,5.7973,5.8093,5.8157,5.8248,5.8354,5.8512,5.8483,5.855,5.8565,5.8648,5.8801,5.8605,5.8607,5.8638,5.9001,5.9025,5.9055,5.8792,5.8797,5.8801,5.8992,0,5.7584,5.7816,5.7846,5.8049,5.8162,5.8155,5.8266,5.8346,5.8387,5.8486,5.8529,5.8641,5.8594,5.8635,5.8716,5.8765,5.8874,5.8752,5.8889,5.8893,5.8866,5.9089,5.9115,5.9292,5.9018,5.9022,5.9025,0,5.7836,5.7937,5.8153,5.8251,5.8299,5.8399,5.851,5.8606,5.8695,5.8719,5.8794,5.8798,5.8926,5.8851,5.9027,5.8943,5.9,5.9032,5.9039,5.9054,5.8969,5.9108,5.935,5.9376,5.9065,5.9062,5.9059,0,5.7968,5.8158,5.8311,5.8361,5.848,5.855,5.8602,5.8688,5.8757,5.8852,5.8897,5.9005,5.9064,5.9146,5.9178,5.912,5.9352,5.9279,5.9373,5.9372,5.9423,5.9419,5.9677,5.9459,5.9459,5.9458,5.9458,0,5.8176,5.8308,5.8372,5.8466,5.8612,5.8644,5.8787,5.8835,5.8911,5.9012,5.901,5.9104,5.914,5.9239,5.9264,5.9405,5.9431,5.9452,5.9457,5.9453,5.945,5.9491,5.948,5.9465,5.9464,5.9462,5.9461,0,5.835,5.8398,5.8564,5.8663,5.8691,5.8794,5.8877,5.8966,5.9006,5.9133,5.9164,5.9225,5.9341,5.9381,5.952,5.9537,5.9701,5.9695,5.9672,5.9673,5.9764,5.9755,6.0057,6.0098,5.9854,5.9856,5.9858,0,5.848,5.8581,5.8692,5.8761,5.8816,5.8927,5.8998,5.9032,5.9105,5.9214,5.9289,5.9405,5.95,5.9684,5.9739,5.9844,5.9841,5.994,5.9857,5.9849,5.9842,5.9836,5.9845,5.9955,5.9958,5.996,5.9962,0,5.8705,5.8723,5.8828,5.8941,5.9027,5.9116,5.9203,5.9258,5.9304,5.9386,5.9506,5.9579,5.9723,5.9836,5.9945,5.9994,5.9985,5.9987,6.0014,6.0011,5.9993,6.0004,5.9714,5.998,5.9978,5.9977,5.9976,5.9975,5.886,5.895,5.9042,5.9158,5.9227,5.9307,5.9396,5.9447,5.9549,5.967,5.9682,5.9811,5.9894,6.0039,6.0094,6.0192,6.0164,6.0204,6.0214,6.0223,6.023,5.9977,6.0212,6.0211,6.0211,6.021,6.021,0,5.9085,5.9144,5.925,5.9373,5.9463,5.9449,5.9543,5.9619,5.9733,5.9814,5.9907,6.0043,6.0153,6.0216,6.0325,6.0392,6.039,6.0419,6.0415,6.0426,6.0249,6.0215,6.0419,6.0419,6.0419,6.0418,6.0418,6.0418,5.9213,5.9364,5.9393,5.9576,5.9633,5.9762,5.9817,5.989,5.9954,6.0108,6.02,6.0241,6.0314,6.0428,6.0526,6.0542,6.0581,6.0614,6.0626,6.046,6.0438,6.0418,6.0386,6.0622,6.0622,6.0794,6.0795,6.0797]}]]